User: anonymous   Login
Location: Caltech
(34.1382°N, 118.1253°W)
Time: 08:25:45
(UTC-07:00)
Language:

HO-68 - Orbit

View from above orbital plane
View from above orbital plane
View from above satellite
View from above satellite

Ground track
Ground track

The orbit data is extracted from the following two-line orbital elements,

1 36122U 09072B   16150.05704078 -.00000059  00000-0 -43517-4 0  9996
2 36122 100.1445 186.6878 0007981  45.7358 314.4420 13.16334301310098
Epoch (UTC): 29 May 2016 01:22:08
Eccentricity: 0.0007981
inclination: 100.1445°
perigee height: 1193 km
apogee height: 1205 km
right ascension of ascending node: 186.6878°
argument of perigee: 45.7358°
revolutions per day: 13.16334301
mean anomaly at epoch: 314.4420°
orbit number at epoch: 31009

The dashed part of the orbit path shows where the satellite is in the earth's shadow,  

DLR